Location: Appeville
(49.3218°N, 1.3427°W)
Time: 21:11:03
(UTC+00:00)

Cosmos 44 - Pass Details

Date: 08 December 2019
Orbit: 595 x 767 km, 65.1° (Epoch: 21 January)

Event Time Altitude Azimuth Distance (km) Brightness Sun altitude
Rises 06:40:31 0° 204° (SSW) 3,024 6.6 -10.3°
Reaches altitude 10° 06:42:55 10° 200° (SSW) 2,085 5.8 -10.0°
Maximum altitude 06:47:30 55° 123° (ESE) 779 4.0 -9.3°
Drops below altitude 10° 06:51:55 10° 46° (NE) 2,001 6.0 -8.6°
Sets 06:54:11 0° 42° (NE) 2,891 6.7 -8.3°
